Location: ??????????
(42.1626°N, 44.1160°E)
Time: 14:47:23
(UTC+00:00)

Okean 3 - Pass Details

Date: 03 March 2021
Orbit: 577 x 600 km, 82.5° (Epoch: 14 April)

Event Time Altitude Azimuth Distance (km) Brightness Sun altitude
Rises 17:01:03 0° 352° (N) 2,831 7.2 -23.8°
Reaches altitude 10° 17:03:15 10° 353° (N) 1,929 6.3 -24.2°
Enters shadow 17:06:25 49° 360° (N) 769 4.0 -24.8°
